Flag for United Kingdom Weather past 2 weeks in Truro, England, United Kingdom

Now
57 °F

Partly sunny.


Feels Like: 56 °F
Forecast: 56 / 62 °F
Wind: 6 mph from South

Location: Culdrose

Current Time: Aug 29, 2015 at 9:15:33 AM

Latest Report: Aug 29, 2015 at 7:50 AM


Visibility: N/A

Pressure: 30.07 "Hg

Humidity: 94%

Dew point: 55 °F

Location of TruroLocation

Historic Weather in Truro — Graph

°F

Truro temperature yesterday

Maximum temperature yesterday: 64 °F (at 12:50 PM)
Minimum temperature yesterday: 54 °F (at 6:50 AM)
Average temperature yesterday: 60 °F

Past Weeks' High & Low Weather Summary

 TemperatureHumidityPressure
High66 °F (Aug 17, 4:50 PM)100% (Aug 18, 10:50 PM)30.09 "Hg (Aug 18, 10:50 PM)
Low46 °F (Aug 16, 1:50 AM)52% (Aug 15, 3:50 PM)29.47 "Hg (Aug 24, 1:50 AM)
Average59 °F88%29.88 "Hg
* Reported Aug 14 7:50 AM — Aug 29 7:50 AM, Truro, Weather by CustomWeather, © 2015

Note: Actual official high and low records may vary slightly from our data, if they occured in-between our weather recording intervals... More about our weather records

Advertising

Truro weather history for previous 24 hours

 ConditionsComfort  
Time TempWeatherWind HumidityBarometerVisibility
7:50 AM
Sat, Aug 29
57 °FPartly sunny.6 mph94%30.07 "HgN/A
5:50 AM57 °FPassing clouds.6 mph94%30.07 "HgN/A
4:50 AM57 °FPartly cloudy.7 mph94%30.07 "HgN/A
3:50 AM57 °FPassing clouds.7 mph94%30.09 "HgN/A
2:50 AM59 °FMostly cloudy.7 mph88%30.07 "HgN/A
1:50 AM59 °FMostly cloudy.6 mph88%30.07 "HgN/A
12:50 AM59 °FMostly cloudy.6 mph88%30.07 "HgN/A
11:50 PM
Fri, Aug 28
59 °FOvercast.5 mph88%30.09 "HgN/A
10:50 PM59 °FOvercast.5 mph88%30.09 "HgN/A
9:50 PM59 °FMostly cloudy.7 mph88%30.07 "HgN/A
8:50 PM59 °FBroken clouds.7 mph88%30.07 "HgN/A
7:50 PM59 °FMore clouds than sun.7 mph94%30.07 "HgN/A
6:50 PM61 °FBroken clouds.8 mph88%30.07 "HgN/A
5:50 PM63 °FBroken clouds.10 mph83%30.04 "HgN/A
4:50 PM63 °FScattered showers. Partly sunny.12 mph83%30.04 "HgN/A
3:50 PM63 °FScattered showers. Partly sunny.14 mph83%30.04 "HgN/A
2:50 PM64 °FPartly sunny.16 mph78%30.04 "HgN/A
1:50 PM64 °FScattered clouds.14 mph78%30.04 "HgN/A
12:50 PM64 °FPartly sunny.14 mph78%30.04 "HgN/A
11:50 AM63 °FScattered clouds.12 mph77%30.01 "HgN/A
10:50 AM63 °FPassing clouds.12 mph83%30.01 "HgN/A
9:50 AM63 °FPassing clouds.12 mph77%29.98 "HgN/A
Weather by CustomWeather, © 2015

See weather overviewHow to use our weather pages